User: anonymous   Login
Location: Dresden
(51.0300°N, 13.7800°E)
Time: 20:22:57
(UTC+01:00)
Language:

AO-73 - Orbit

View from above orbital plane
View from above orbital plane
View from above satellite
View from above satellite

Ground track
Ground track

The orbit data is extracted from the following two-line orbital elements,

1 39444U 13066AE  25340.87402311  .00013472  00000-0  91562-3 0  9993
2 39444  97.8053 304.0814 0040280 134.8342 225.6170 15.05808706650685
Epoch (UTC): 06 December 2025 20:58:35
Eccentricity: 0.0040280
inclination: 97.8053°
perigee height: 521 km
apogee height: 577 km
right ascension of ascending node: 304.0814°
argument of perigee: 134.8342°
revolutions per day: 15.05808706
mean anomaly at epoch: 225.6170°
orbit number at epoch: 65068

The dashed part of the orbit path shows where the satellite is in the earth's shadow,  

DLR